owner,sensor,date,latitude,longitude,vertical_datum,sea_water_practical_salinity,qcFlag 
DISL,ioos:station:DISL:CATA:1,2017-06-01T00:00:00Z,30.3085,-88.1395,2.344,5.85,1111122 
DISL,ioos:station:DISL:CATA:1,2017-06-01T00:30:00Z,30.3085,-88.1395,2.325,5.48,1111122 
DISL,ioos:station:DISL:CATA:1,2017-06-01T01:00:00Z,30.3085,-88.1395,2.273,5.46,1111122 
DISL,ioos:station:DISL:CATA:1,2017-06-01T01:30:00Z,30.3085,-88.1395,2.249,5.51,1111122 
DISL,ioos:station:DISL:CATA:1,2017-06-01T02:00:00Z,30.3085,-88.1395,2.217,5.51,1111122 
DISL,ioos:station:DISL:CATA:1,2017-06-01T02:30:00Z,30.3085,-88.1395,2.166,5.46,1111122 
DISL,ioos:station:DISL:CATA:1,2017-06-01T03:00:00Z,30.3085,-88.1395,2.123,5.71,1111122 
DISL,ioos:station:DISL:CATA:1,2017-06-01T03:30:00Z,30.3085,-88.1395,2.112,5.64,1111122 
DISL,ioos:station:DISL:CATA:1,2017-06-01T04:00:00Z,30.3085,-88.1395,2.1,5.75,1111122 
DISL,ioos:station:DISL:CATA:1,2017-06-01T04:30:00Z,30.3085,-88.1395,2.1,5.85,1111122 
DISL,ioos:station:DISL:CATA:1,2017-06-01T05:00:00Z,30.3085,-88.1395,2.097,5.77,1111122 
DISL,ioos:station:DISL:CATA:1,2017-06-01T05:30:00Z,30.3085,-88.1395,2.105,5.77,1111122 
DISL,ioos:station:DISL:CATA:1,2017-06-01T06:00:00Z,30.3085,-88.1395,2.131,5.56,1111122 
DISL,ioos:station:DISL:CATA:1,2017-06-01T06:30:00Z,30.3085,-88.1395,2.156,5.65,1111122 
DISL,ioos:station:DISL:CATA:1,2017-06-01T07:00:00Z,30.3085,-88.1395,2.145,5.63,1111122 
DISL,ioos:station:DISL:CATA:1,2017-06-01T07:30:00Z,30.3085,-88.1395,2.117,5.43,1111122 
DISL,ioos:station:DISL:CATA:1,2017-06-01T08:00:00Z,30.3085,-88.1395,2.092,5.62,1111122 
DISL,ioos:station:DISL:CATA:1,2017-06-01T08:30:00Z,30.3085,-88.1395,2.073,6.08,1111122 
DISL,ioos:station:DISL:CATA:1,2017-06-01T09:00:00Z,30.3085,-88.1395,2.065,6.01,1111122 
DISL,ioos:station:DISL:CATA:1,2017-06-01T09:30:00Z,30.3085,-88.1395,2.064,5.86,1111122 
DISL,ioos:station:DISL:CATA:1,2017-06-01T10:00:00Z,30.3085,-88.1395,2.088,5.67,1111122 
DISL,ioos:station:DISL:CATA:1,2017-06-01T10:30:00Z,30.3085,-88.1395,2.104,5.62,1111122 
DISL,ioos:station:DISL:CATA:1,2017-06-01T11:00:00Z,30.3085,-88.1395,2.131,5.72,1111122 
DISL,ioos:station:DISL:CATA:1,2017-06-01T11:30:00Z,30.3085,-88.1395,2.149,5.86,1111122 
DISL,ioos:station:DISL:CATA:1,2017-06-01T12:00:00Z,30.3085,-88.1395,2.177,6.09,1111122 
DISL,ioos:station:DISL:CATA:1,2017-06-01T12:30:00Z,30.3085,-88.1395,2.197,6.14,1111122 
DISL,ioos:station:DISL:CATA:1,2017-06-01T13:00:00Z,30.3085,-88.1395,2.214,6.25,1111122 
DISL,ioos:station:DISL:CATA:1,2017-06-01T13:30:00Z,30.3085,-88.1395,2.228,5.98,1111122 
DISL,ioos:station:DISL:CATA:1,2017-06-01T14:00:00Z,30.3085,-88.1395,2.253,5.96,1111122 
DISL,ioos:station:DISL:CATA:1,2017-06-01T14:30:00Z,30.3085,-88.1395,2.274,5.95,1111122 
DISL,ioos:station:DISL:CATA:1,2017-06-01T15:00:00Z,30.3085,-88.1395,2.286,5.81,1111122 
DISL,ioos:station:DISL:CATA:1,2017-06-01T15:30:00Z,30.3085,-88.1395,2.282,5.95,1111122 
DISL,ioos:station:DISL:CATA:1,2017-06-01T16:00:00Z,30.3085,-88.1395,2.296,5.86,1111122 
DISL,ioos:station:DISL:CATA:1,2017-06-01T16:30:00Z,30.3085,-88.1395,2.315,5.93,1111122 
DISL,ioos:station:DISL:CATA:1,2017-06-01T17:00:00Z,30.3085,-88.1395,2.323,5.86,1111122 
DISL,ioos:station:DISL:CATA:1,2017-06-01T17:30:00Z,30.3085,-88.1395,2.312,6.06,1111122 
DISL,ioos:station:DISL:CATA:1,2017-06-01T18:00:00Z,30.3085,-88.1395,2.337,5.86,1111122 
DISL,ioos:station:DISL:CATA:1,2017-06-01T18:30:00Z,30.3085,-88.1395,2.335,5.78,1111122 
DISL,ioos:station:DISL:CATA:1,2017-06-01T19:00:00Z,30.3085,-88.1395,2.339,5.83,1111122 
DISL,ioos:station:DISL:CATA:1,2017-06-01T19:30:00Z,30.3085,-88.1395,2.318,5.89,1111122 
DISL,ioos:station:DISL:CATA:1,2017-06-01T20:00:00Z,30.3085,-88.1395,2.314,5.74,1111122 
DISL,ioos:station:DISL:CATA:1,2017-06-01T20:30:00Z,30.3085,-88.1395,2.316,5.46,1111122 
DISL,ioos:station:DISL:CATA:1,2017-06-01T21:00:00Z,30.3085,-88.1395,2.313,5.38,1111122 
DISL,ioos:station:DISL:CATA:1,2017-06-01T21:30:00Z,30.3085,-88.1395,2.325,5.63,1111122 
DISL,ioos:station:DISL:CATA:1,2017-06-01T22:00:00Z,30.3085,-88.1395,2.315,5.71,1111122 
DISL,ioos:station:DISL:CATA:1,2017-06-01T22:30:00Z,30.3085,-88.1395,2.295,6.42,1111122 
DISL,ioos:station:DISL:CATA:1,2017-06-01T23:00:00Z,30.3085,-88.1395,2.288,6.67,1111122 
DISL,ioos:station:DISL:CATA:1,2017-06-01T23:30:00Z,30.3085,-88.1395,2.284,6.2,1111122 
DISL,ioos:station:DISL:CATA:1,2017-06-02T00:00:00Z,30.3085,-88.1395,2.281,5.86,1111122 
DISL,ioos:station:DISL:CATA:1,2017-06-02T00:30:00Z,30.3085,-88.1395,2.272,5.6,1111122 
DISL,ioos:station:DISL:CATA:1,2017-06-02T01:30:00Z,30.3085,-88.1395,2.263,6.35,1111122 
DISL,ioos:station:DISL:CATA:1,2017-06-02T02:00:00Z,30.3085,-88.1395,2.224,5.93,1111122 
DISL,ioos:station:DISL:CATA:1,2017-06-02T02:30:00Z,30.3085,-88.1395,2.211,6.23,1111122 
DISL,ioos:station:DISL:CATA:1,2017-06-02T03:00:00Z,30.3085,-88.1395,2.211,9.44,1111122 
DISL,ioos:station:DISL:CATA:1,2017-06-02T03:30:00Z,30.3085,-88.1395,2.194,8.82,1111122 
DISL,ioos:station:DISL:CATA:1,2017-06-02T04:00:00Z,30.3085,-88.1395,2.187,6.31,1111122 
DISL,ioos:station:DISL:CATA:1,2017-06-02T04:30:00Z,30.3085,-88.1395,2.178,5.78,1111122 
DISL,ioos:station:DISL:CATA:1,2017-06-02T05:00:00Z,30.3085,-88.1395,2.162,5.13,1111122 
DISL,ioos:station:DISL:CATA:1,2017-06-02T05:30:00Z,30.3085,-88.1395,2.146,4.8,1111122 
DISL,ioos:station:DISL:CATA:1,2017-06-02T06:00:00Z,30.3085,-88.1395,2.115,4.75,1111122 
DISL,ioos:station:DISL:CATA:1,2017-06-02T06:30:00Z,30.3085,-88.1395,2.111,4.53,1111122 
DISL,ioos:station:DISL:CATA:1,2017-06-02T07:00:00Z,30.3085,-88.1395,2.117,4.45,1111122 
DISL,ioos:station:DISL:CATA:1,2017-06-02T07:30:00Z,30.3085,-88.1395,2.134,4.41,1111122 
DISL,ioos:station:DISL:CATA:1,2017-06-02T08:00:00Z,30.3085,-88.1395,2.156,4.53,1111122 
DISL,ioos:station:DISL:CATA:1,2017-06-02T08:30:00Z,30.3085,-88.1395,2.182,4.53,1111122 
DISL,ioos:station:DISL:CATA:1,2017-06-02T09:00:00Z,30.3085,-88.1395,2.205,4.77,1111122 
DISL,ioos:station:DISL:CATA:1,2017-06-02T09:30:00Z,30.3085,-88.1395,2.222,4.96,1111122 
DISL,ioos:station:DISL:CATA:1,2017-06-02T10:00:00Z,30.3085,-88.1395,2.229,4.77,1111122 
DISL,ioos:station:DISL:CATA:1,2017-06-02T10:30:00Z,30.3085,-88.1395,2.238,4.74,1111122 
DISL,ioos:station:DISL:CATA:1,2017-06-02T11:00:00Z,30.3085,-88.1395,2.249,4.76,1111122 
DISL,ioos:station:DISL:CATA:1,2017-06-02T11:30:00Z,30.3085,-88.1395,2.271,4.4,1111122 
DISL,ioos:station:DISL:CATA:1,2017-06-02T12:00:00Z,30.3085,-88.1395,2.286,4.53,1111122 
DISL,ioos:station:DISL:CATA:1,2017-06-02T12:30:00Z,30.3085,-88.1395,2.303,4.54,1111122 
DISL,ioos:station:DISL:CATA:1,2017-06-02T13:00:00Z,30.3085,-88.1395,2.302,4.48,1111122 
DISL,ioos:station:DISL:CATA:1,2017-06-02T13:30:00Z,30.3085,-88.1395,2.325,5.32,1111122 
DISL,ioos:station:DISL:CATA:1,2017-06-02T14:00:00Z,30.3085,-88.1395,2.34,6.41,1111122 
DISL,ioos:station:DISL:CATA:1,2017-06-02T15:00:00Z,30.3085,-88.1395,2.33,9.79,1111122 
DISL,ioos:station:DISL:CATA:1,2017-06-02T15:30:00Z,30.3085,-88.1395,2.328,11.89,1111122 
DISL,ioos:station:DISL:CATA:1,2017-06-02T16:00:00Z,30.3085,-88.1395,2.328,12.46,1111122 
DISL,ioos:station:DISL:CATA:1,2017-06-02T16:30:00Z,30.3085,-88.1395,2.323,14.88,1111122 
DISL,ioos:station:DISL:CATA:1,2017-06-02T17:00:00Z,30.3085,-88.1395,2.308,15.29,1111122 
DISL,ioos:station:DISL:CATA:1,2017-06-02T17:30:00Z,30.3085,-88.1395,2.295,15.33,1111122 
DISL,ioos:station:DISL:CATA:1,2017-06-02T18:00:00Z,30.3085,-88.1395,2.286,15.26,1111122 
DISL,ioos:station:DISL:CATA:1,2017-06-02T18:30:00Z,30.3085,-88.1395,2.281,16.01,1111122 
DISL,ioos:station:DISL:CATA:1,2017-06-02T19:00:00Z,30.3085,-88.1395,2.29,15.43,1111122 
DISL,ioos:station:DISL:CATA:1,2017-06-02T19:30:00Z,30.3085,-88.1395,2.273,15.06,1111122 
DISL,ioos:station:DISL:CATA:1,2017-06-02T20:00:00Z,30.3085,-88.1395,2.276,13.63,1111122 
DISL,ioos:station:DISL:CATA:1,2017-06-02T20:30:00Z,30.3085,-88.1395,2.288,12.22,1111122 
DISL,ioos:station:DISL:CATA:1,2017-06-02T21:00:00Z,30.3085,-88.1395,2.29,8.87,1111122 
DISL,ioos:station:DISL:CATA:1,2017-06-02T21:30:00Z,30.3085,-88.1395,2.292,8.86,1111122 
DISL,ioos:station:DISL:CATA:1,2017-06-02T22:00:00Z,30.3085,-88.1395,2.294,5.93,1111122 
DISL,ioos:station:DISL:CATA:1,2017-06-02T22:30:00Z,30.3085,-88.1395,2.314,6.38,1111122 
DISL,ioos:station:DISL:CATA:1,2017-06-02T23:00:00Z,30.3085,-88.1395,2.305,6.19,1111122 
DISL,ioos:station:DISL:CATA:1,2017-06-02T23:30:00Z,30.3085,-88.1395,2.289,7.54,1111122 
DISL,ioos:station:DISL:CATA:1,2017-06-03T00:00:00Z,30.3085,-88.1395,2.303,6.44,1111122 
DISL,ioos:station:DISL:CATA:1,2017-06-03T00:30:00Z,30.3085,-88.1395,2.297,6.54,1111122 
DISL,ioos:station:DISL:CATA:1,2017-06-03T01:00:00Z,30.3085,-88.1395,2.273,7.07,1111122 
DISL,ioos:station:DISL:CATA:1,2017-06-03T01:30:00Z,30.3085,-88.1395,2.282,6.51,1111122 
DISL,ioos:station:DISL:CATA:1,2017-06-03T02:00:00Z,30.3085,-88.1395,2.301,6.37,1111122 
DISL,ioos:station:DISL:CATA:1,2017-06-03T02:30:00Z,30.3085,-88.1395,2.295,5.7,1111122 
DISL,ioos:station:DISL:CATA:1,2017-06-03T03:00:00Z,30.3085,-88.1395,2.269,5.45,1111122 
DISL,ioos:station:DISL:CATA:1,2017-06-03T03:30:00Z,30.3085,-88.1395,2.256,5.55,1111122 
DISL,ioos:station:DISL:CATA:1,2017-06-03T04:00:00Z,30.3085,-88.1395,2.256,5.6,1111122 
DISL,ioos:station:DISL:CATA:1,2017-06-03T04:30:00Z,30.3085,-88.1395,2.237,5.69,1111122 
DISL,ioos:station:DISL:CATA:1,2017-06-03T05:00:00Z,30.3085,-88.1395,2.217,5.74,1111122 
DISL,ioos:station:DISL:CATA:1,2017-06-03T06:00:00Z,30.3085,-88.1395,2.211,5.46,1111122 
DISL,ioos:station:DISL:CATA:1,2017-06-03T06:30:00Z,30.3085,-88.1395,2.193,5.33,1111122 
DISL,ioos:station:DISL:CATA:1,2017-06-03T07:00:00Z,30.3085,-88.1395,2.199,5.32,1111122 
DISL,ioos:station:DISL:CATA:1,2017-06-03T07:30:00Z,30.3085,-88.1395,2.22,5.33,1111122 
DISL,ioos:station:DISL:CATA:1,2017-06-03T08:00:00Z,30.3085,-88.1395,2.24,5.47,1111122 
DISL,ioos:station:DISL:CATA:1,2017-06-03T08:30:00Z,30.3085,-88.1395,2.268,5.44,1111122 
DISL,ioos:station:DISL:CATA:1,2017-06-03T09:00:00Z,30.3085,-88.1395,2.281,5.73,1111122 
DISL,ioos:station:DISL:CATA:1,2017-06-03T09:30:00Z,30.3085,-88.1395,2.296,5.81,1111122 
DISL,ioos:station:DISL:CATA:1,2017-06-03T10:00:00Z,30.3085,-88.1395,2.303,5.52,1111122 
DISL,ioos:station:DISL:CATA:1,2017-06-03T10:30:00Z,30.3085,-88.1395,2.312,5.29,1111122 
DISL,ioos:station:DISL:CATA:1,2017-06-03T11:00:00Z,30.3085,-88.1395,2.316,5.16,1111122 
DISL,ioos:station:DISL:CATA:1,2017-06-03T11:30:00Z,30.3085,-88.1395,2.319,5.25,1111122 
DISL,ioos:station:DISL:CATA:1,2017-06-03T12:00:00Z,30.3085,-88.1395,2.345,5.54,1111122 
DISL,ioos:station:DISL:CATA:1,2017-06-03T12:30:00Z,30.3085,-88.1395,2.35,5.41,1111122 
DISL,ioos:station:DISL:CATA:1,2017-06-03T13:00:00Z,30.3085,-88.1395,2.345,5.44,1111122 
DISL,ioos:station:DISL:CATA:1,2017-06-03T13:30:00Z,30.3085,-88.1395,2.364,5.58,1111122 
DISL,ioos:station:DISL:CATA:1,2017-06-03T14:00:00Z,30.3085,-88.1395,2.39,5.72,1111122 
DISL,ioos:station:DISL:CATA:1,2017-06-03T14:30:00Z,30.3085,-88.1395,2.397,5.7,1111122 
DISL,ioos:station:DISL:CATA:1,2017-06-03T15:00:00Z,30.3085,-88.1395,2.396,5.7,1111122 
DISL,ioos:station:DISL:CATA:1,2017-06-03T15:30:00Z,30.3085,-88.1395,2.385,5.75,1111122 
DISL,ioos:station:DISL:CATA:1,2017-06-03T16:00:00Z,30.3085,-88.1395,2.37,5.78,1111122 
DISL,ioos:station:DISL:CATA:1,2017-06-03T16:30:00Z,30.3085,-88.1395,2.345,5.78,1111122 
DISL,ioos:station:DISL:CATA:1,2017-06-03T17:00:00Z,30.3085,-88.1395,2.32,5.77,1111122 
DISL,ioos:station:DISL:CATA:1,2017-06-03T17:30:00Z,30.3085,-88.1395,2.29,5.75,1111122 
DISL,ioos:station:DISL:CATA:1,2017-06-03T18:00:00Z,30.3085,-88.1395,2.27,5.86,1111122 
DISL,ioos:station:DISL:CATA:1,2017-06-03T18:30:00Z,30.3085,-88.1395,2.249,6.39,1111122 
DISL,ioos:station:DISL:CATA:1,2017-06-03T19:00:00Z,30.3085,-88.1395,2.233,6.37,1111122 
DISL,ioos:station:DISL:CATA:1,2017-06-03T19:30:00Z,30.3085,-88.1395,2.213,6.19,1111122 
DISL,ioos:station:DISL:CATA:1,2017-06-03T20:00:00Z,30.3085,-88.1395,2.198,6.19,1111122 
DISL,ioos:station:DISL:CATA:1,2017-06-03T20:30:00Z,30.3085,-88.1395,2.2,6.28,1111122 
DISL,ioos:station:DISL:CATA:1,2017-06-03T21:00:00Z,30.3085,-88.1395,2.2,6.37,1111122 
DISL,ioos:station:DISL:CATA:1,2017-06-03T21:30:00Z,30.3085,-88.1395,2.195,6.47,1111122 
DISL,ioos:station:DISL:CATA:1,2017-06-03T22:00:00Z,30.3085,-88.1395,2.194,6.31,1111122 
DISL,ioos:station:DISL:CATA:1,2017-06-03T22:30:00Z,30.3085,-88.1395,2.207,6.36,1111122 
DISL,ioos:station:DISL:CATA:1,2017-06-03T23:00:00Z,30.3085,-88.1395,2.217,6.51,1111122 
DISL,ioos:station:DISL:CATA:1,2017-06-03T23:30:00Z,30.3085,-88.1395,2.215,6.64,1111122 
DISL,ioos:station:DISL:CATA:1,2017-06-04T00:00:00Z,30.3085,-88.1395,2.243,6.63,1111122 
DISL,ioos:station:DISL:CATA:1,2017-06-04T00:30:00Z,30.3085,-88.1395,2.189,5.98,1111122 
DISL,ioos:station:DISL:CATA:1,2017-06-04T01:00:00Z,30.3085,-88.1395,2.13,6.15,1111122 
DISL,ioos:station:DISL:CATA:1,2017-06-04T01:30:00Z,30.3085,-88.1395,2.079,6.4,1111122 
DISL,ioos:station:DISL:CATA:1,2017-06-04T02:00:00Z,30.3085,-88.1395,2.064,5.77,1111122 
DISL,ioos:station:DISL:CATA:1,2017-06-04T02:30:00Z,30.3085,-88.1395,2.092,5.49,1111122 
DISL,ioos:station:DISL:CATA:1,2017-06-04T03:00:00Z,30.3085,-88.1395,2.112,5.63,1111122 
DISL,ioos:station:DISL:CATA:1,2017-06-04T03:30:00Z,30.3085,-88.1395,2.145,5.58,1111122 
DISL,ioos:station:DISL:CATA:1,2017-06-04T04:00:00Z,30.3085,-88.1395,2.172,5.51,1111122 
DISL,ioos:station:DISL:CATA:1,2017-06-04T04:30:00Z,30.3085,-88.1395,2.195,5.45,1111122 
DISL,ioos:station:DISL:CATA:1,2017-06-04T05:00:00Z,30.3085,-88.1395,2.202,5.51,1111122 
DISL,ioos:station:DISL:CATA:1,2017-06-04T05:30:00Z,30.3085,-88.1395,2.193,5.9,1111122 
DISL,ioos:station:DISL:CATA:1,2017-06-04T06:00:00Z,30.3085,-88.1395,2.205,6.02,1111122 
DISL,ioos:station:DISL:CATA:1,2017-06-04T06:30:00Z,30.3085,-88.1395,2.23,5.65,1111122 
DISL,ioos:station:DISL:CATA:1,2017-06-04T07:00:00Z,30.3085,-88.1395,2.253,5.63,1111122 
DISL,ioos:station:DISL:CATA:1,2017-06-04T07:30:00Z,30.3085,-88.1395,2.272,5.62,1111122 
DISL,ioos:station:DISL:CATA:1,2017-06-04T08:00:00Z,30.3085,-88.1395,2.287,6.37,1111122 
DISL,ioos:station:DISL:CATA:1,2017-06-04T08:30:00Z,30.3085,-88.1395,2.314,6.01,1111122 
DISL,ioos:station:DISL:CATA:1,2017-06-04T09:30:00Z,30.3085,-88.1395,2.361,5.92,1111122 
DISL,ioos:station:DISL:CATA:1,2017-06-04T10:00:00Z,30.3085,-88.1395,2.383,5.6,1111122 
DISL,ioos:station:DISL:CATA:1,2017-06-04T10:30:00Z,30.3085,-88.1395,2.401,5.61,1111122 
DISL,ioos:station:DISL:CATA:1,2017-06-04T11:00:00Z,30.3085,-88.1395,2.398,5.55,1111122 
DISL,ioos:station:DISL:CATA:1,2017-06-04T11:30:00Z,30.3085,-88.1395,2.395,5.51,1111122 
DISL,ioos:station:DISL:CATA:1,2017-06-04T12:00:00Z,30.3085,-88.1395,2.393,5.78,1111122 
DISL,ioos:station:DISL:CATA:1,2017-06-04T12:30:00Z,30.3085,-88.1395,2.396,5.72,1111122 
DISL,ioos:station:DISL:CATA:1,2017-06-04T13:00:00Z,30.3085,-88.1395,2.401,5.85,1111122 
DISL,ioos:station:DISL:CATA:1,2017-06-04T13:30:00Z,30.3085,-88.1395,2.388,5.65,1111122 
DISL,ioos:station:DISL:CATA:1,2017-06-04T14:00:00Z,30.3085,-88.1395,2.395,5.73,1111122 
DISL,ioos:station:DISL:CATA:1,2017-06-04T14:30:00Z,30.3085,-88.1395,2.398,5.84,1111122 
DISL,ioos:station:DISL:CATA:1,2017-06-04T15:00:00Z,30.3085,-88.1395,2.404,5.98,1111122 
DISL,ioos:station:DISL:CATA:1,2017-06-04T15:30:00Z,30.3085,-88.1395,2.405,6.19,1111122 
DISL,ioos:station:DISL:CATA:1,2017-06-04T16:00:00Z,30.3085,-88.1395,2.407,6.28,1111122 
DISL,ioos:station:DISL:CATA:1,2017-06-04T16:30:00Z,30.3085,-88.1395,2.41,6.32,1111122 
DISL,ioos:station:DISL:CATA:1,2017-06-04T17:00:00Z,30.3085,-88.1395,2.382,6.35,1111122 
DISL,ioos:station:DISL:CATA:1,2017-06-04T17:30:00Z,30.3085,-88.1395,2.348,6.44,1111122 
DISL,ioos:station:DISL:CATA:1,2017-06-04T18:00:00Z,30.3085,-88.1395,2.314,6.5,1111122 
DISL,ioos:station:DISL:CATA:1,2017-06-04T18:30:00Z,30.3085,-88.1395,2.295,6.47,1111122 
DISL,ioos:station:DISL:CATA:1,2017-06-04T19:00:00Z,30.3085,-88.1395,2.281,6.43,1111122 
DISL,ioos:station:DISL:CATA:1,2017-06-04T19:30:00Z,30.3085,-88.1395,2.263,6.44,1111122 
DISL,ioos:station:DISL:CATA:1,2017-06-04T20:00:00Z,30.3085,-88.1395,2.251,6.43,1111122 
DISL,ioos:station:DISL:CATA:1,2017-06-04T20:30:00Z,30.3085,-88.1395,2.227,6.4,1111122 
DISL,ioos:station:DISL:CATA:1,2017-06-04T21:00:00Z,30.3085,-88.1395,2.215,6.33,1111122 
DISL,ioos:station:DISL:CATA:1,2017-06-04T21:30:00Z,30.3085,-88.1395,2.209,6.32,1111122 
DISL,ioos:station:DISL:CATA:1,2017-06-04T22:00:00Z,30.3085,-88.1395,2.234,6.28,1111122 
DISL,ioos:station:DISL:CATA:1,2017-06-04T22:30:00Z,30.3085,-88.1395,2.235,6.33,1111122 
DISL,ioos:station:DISL:CATA:1,2017-06-04T23:00:00Z,30.3085,-88.1395,2.249,6.26,1111122 
DISL,ioos:station:DISL:CATA:1,2017-06-04T23:30:00Z,30.3085,-88.1395,2.258,6.04,1111122 
DISL,ioos:station:DISL:CATA:1,2017-06-05T00:00:00Z,30.3085,-88.1395,2.252,6.1,1111122 
DISL,ioos:station:DISL:CATA:1,2017-06-05T00:30:00Z,30.3085,-88.1395,2.253,6.04,1111122 
DISL,ioos:station:DISL:CATA:1,2017-06-05T01:00:00Z,30.3085,-88.1395,2.245,6.23,1111122 
DISL,ioos:station:DISL:CATA:1,2017-06-05T01:30:00Z,30.3085,-88.1395,2.232,5.94,1111122 
DISL,ioos:station:DISL:CATA:1,2017-06-05T02:00:00Z,30.3085,-88.1395,2.215,5.86,1111122 
DISL,ioos:station:DISL:CATA:1,2017-06-05T02:30:00Z,30.3085,-88.1395,2.218,5.71,1111122 
DISL,ioos:station:DISL:CATA:1,2017-06-05T03:00:00Z,30.3085,-88.1395,2.237,5.65,1111122 
DISL,ioos:station:DISL:CATA:1,2017-06-05T03:30:00Z,30.3085,-88.1395,2.258,5.66,1111122 
DISL,ioos:station:DISL:CATA:1,2017-06-05T04:00:00Z,30.3085,-88.1395,2.282,5.72,1111122 
DISL,ioos:station:DISL:CATA:1,2017-06-05T04:30:00Z,30.3085,-88.1395,2.31,5.65,1111122 
DISL,ioos:station:DISL:CATA:1,2017-06-05T05:00:00Z,30.3085,-88.1395,2.31,5.67,1111122 
DISL,ioos:station:DISL:CATA:1,2017-06-05T05:30:00Z,30.3085,-88.1395,2.323,5.73,1111122 
DISL,ioos:station:DISL:CATA:1,2017-06-05T06:00:00Z,30.3085,-88.1395,2.338,5.77,1111122 
DISL,ioos:station:DISL:CATA:1,2017-06-05T06:30:00Z,30.3085,-88.1395,2.341,5.74,1111122 
DISL,ioos:station:DISL:CATA:1,2017-06-05T07:00:00Z,30.3085,-88.1395,2.353,5.86,1111122 
DISL,ioos:station:DISL:CATA:1,2017-06-05T07:30:00Z,30.3085,-88.1395,2.354,6.03,1111122 
DISL,ioos:station:DISL:CATA:1,2017-06-05T08:00:00Z,30.3085,-88.1395,2.379,6.11,1111122 
DISL,ioos:station:DISL:CATA:1,2017-06-05T08:30:00Z,30.3085,-88.1395,2.402,6.13,1111122 
DISL,ioos:station:DISL:CATA:1,2017-06-05T09:00:00Z,30.3085,-88.1395,2.423,6.08,1111122 
DISL,ioos:station:DISL:CATA:1,2017-06-05T09:30:00Z,30.3085,-88.1395,2.447,6.06,1111122 
DISL,ioos:station:DISL:CATA:1,2017-06-05T10:00:00Z,30.3085,-88.1395,2.471,6.03,1111122 
DISL,ioos:station:DISL:CATA:1,2017-06-05T10:30:00Z,30.3085,-88.1395,2.485,5.82,1111122 
DISL,ioos:station:DISL:CATA:1,2017-06-05T11:00:00Z,30.3085,-88.1395,2.495,5.59,1111122 
DISL,ioos:station:DISL:CATA:1,2017-06-05T11:30:00Z,30.3085,-88.1395,2.512,5.44,1111122 
DISL,ioos:station:DISL:CATA:1,2017-06-05T12:00:00Z,30.3085,-88.1395,2.508,5.37,1111122 
DISL,ioos:station:DISL:CATA:1,2017-06-05T12:30:00Z,30.3085,-88.1395,2.506,8.0,1111122 
DISL,ioos:station:DISL:CATA:1,2017-06-05T13:00:00Z,30.3085,-88.1395,2.487,9.31,1111122 
DISL,ioos:station:DISL:CATA:1,2017-06-05T13:30:00Z,30.3085,-88.1395,2.467,11.01,1111122 
DISL,ioos:station:DISL:CATA:1,2017-06-05T14:00:00Z,30.3085,-88.1395,2.477,11.74,1111122 
DISL,ioos:station:DISL:CATA:1,2017-06-05T14:30:00Z,30.3085,-88.1395,2.479,11.93,1111122 
DISL,ioos:station:DISL:CATA:1,2017-06-05T15:00:00Z,30.3085,-88.1395,2.466,12.86,1111122 
DISL,ioos:station:DISL:CATA:1,2017-06-05T15:30:00Z,30.3085,-88.1395,2.466,14.42,1111122 
DISL,ioos:station:DISL:CATA:1,2017-06-05T16:00:00Z,30.3085,-88.1395,2.478,14.14,1111122 
DISL,ioos:station:DISL:CATA:1,2017-06-05T16:30:00Z,30.3085,-88.1395,2.47,12.12,1111122 
DISL,ioos:station:DISL:CATA:1,2017-06-05T17:00:00Z,30.3085,-88.1395,2.442,13.77,1111122 
DISL,ioos:station:DISL:CATA:1,2017-06-05T17:30:00Z,30.3085,-88.1395,2.408,14.84,1111122 
DISL,ioos:station:DISL:CATA:1,2017-06-05T18:00:00Z,30.3085,-88.1395,2.383,15.24,1111122 
DISL,ioos:station:DISL:CATA:1,2017-06-05T18:30:00Z,30.3085,-88.1395,2.365,15.34,1111122 
DISL,ioos:station:DISL:CATA:1,2017-06-05T19:00:00Z,30.3085,-88.1395,2.335,15.16,1111122 
DISL,ioos:station:DISL:CATA:1,2017-06-05T19:30:00Z,30.3085,-88.1395,2.309,8.71,1111122 
DISL,ioos:station:DISL:CATA:1,2017-06-05T20:00:00Z,30.3085,-88.1395,2.294,6.24,1111122 
DISL,ioos:station:DISL:CATA:1,2017-06-05T20:30:00Z,30.3085,-88.1395,2.285,5.3,1111122 
DISL,ioos:station:DISL:CATA:1,2017-06-05T21:00:00Z,30.3085,-88.1395,2.259,5.37,1111122 
DISL,ioos:station:DISL:CATA:1,2017-06-05T21:30:00Z,30.3085,-88.1395,2.243,5.21,1111122 
DISL,ioos:station:DISL:CATA:1,2017-06-05T22:00:00Z,30.3085,-88.1395,2.246,5.4,1111122 
DISL,ioos:station:DISL:CATA:1,2017-06-05T22:30:00Z,30.3085,-88.1395,2.252,5.36,1111122 
DISL,ioos:station:DISL:CATA:1,2017-06-05T23:00:00Z,30.3085,-88.1395,2.256,5.29,1111122 
DISL,ioos:station:DISL:CATA:1,2017-06-05T23:30:00Z,30.3085,-88.1395,2.265,5.35,1111122 
DISL,ioos:station:DISL:CATA:1,2017-06-06T00:00:00Z,30.3085,-88.1395,2.276,5.39,1111122 
DISL,ioos:station:DISL:CATA:1,2017-06-06T00:30:00Z,30.3085,-88.1395,2.268,5.47,1111122 
DISL,ioos:station:DISL:CATA:1,2017-06-06T01:00:00Z,30.3085,-88.1395,2.266,5.65,1111122 
DISL,ioos:station:DISL:CATA:1,2017-06-06T01:30:00Z,30.3085,-88.1395,2.244,5.81,1111122 
DISL,ioos:station:DISL:CATA:1,2017-06-06T02:00:00Z,30.3085,-88.1395,2.242,6.51,1111122 
DISL,ioos:station:DISL:CATA:1,2017-06-06T02:30:00Z,30.3085,-88.1395,2.246,5.83,1111122 
DISL,ioos:station:DISL:CATA:1,2017-06-06T03:00:00Z,30.3085,-88.1395,2.26,5.83,1111122 
DISL,ioos:station:DISL:CATA:1,2017-06-06T03:30:00Z,30.3085,-88.1395,2.27,5.84,1111122 
DISL,ioos:station:DISL:CATA:1,2017-06-06T04:00:00Z,30.3085,-88.1395,2.281,5.76,1111122 
DISL,ioos:station:DISL:CATA:1,2017-06-06T04:30:00Z,30.3085,-88.1395,2.306,5.74,1111122 
DISL,ioos:station:DISL:CATA:1,2017-06-06T05:00:00Z,30.3085,-88.1395,2.337,5.74,1111122 
DISL,ioos:station:DISL:CATA:1,2017-06-06T05:30:00Z,30.3085,-88.1395,2.357,5.74,1111122 
DISL,ioos:station:DISL:CATA:1,2017-06-06T06:00:00Z,30.3085,-88.1395,2.37,5.93,1111122 
DISL,ioos:station:DISL:CATA:1,2017-06-06T06:30:00Z,30.3085,-88.1395,2.38,5.75,1111122 
DISL,ioos:station:DISL:CATA:1,2017-06-06T07:00:00Z,30.3085,-88.1395,2.387,5.84,1111122 
DISL,ioos:station:DISL:CATA:1,2017-06-06T07:30:00Z,30.3085,-88.1395,2.423,5.91,1111122 
DISL,ioos:station:DISL:CATA:1,2017-06-06T08:00:00Z,30.3085,-88.1395,2.434,5.86,1111122 
DISL,ioos:station:DISL:CATA:1,2017-06-06T08:30:00Z,30.3085,-88.1395,2.465,5.81,1111122 
DISL,ioos:station:DISL:CATA:1,2017-06-06T09:00:00Z,30.3085,-88.1395,2.476,6.11,1111122 
DISL,ioos:station:DISL:CATA:1,2017-06-06T09:30:00Z,30.3085,-88.1395,2.492,6.07,1111122 
DISL,ioos:station:DISL:CATA:1,2017-06-06T10:00:00Z,30.3085,-88.1395,2.512,6.16,1111122 
DISL,ioos:station:DISL:CATA:1,2017-06-06T10:30:00Z,30.3085,-88.1395,2.543,6.32,1111122 
DISL,ioos:station:DISL:CATA:1,2017-06-06T11:00:00Z,30.3085,-88.1395,2.55,6.37,1111122 
DISL,ioos:station:DISL:CATA:1,2017-06-06T11:30:00Z,30.3085,-88.1395,2.581,6.37,1111122 
DISL,ioos:station:DISL:CATA:1,2017-06-06T12:00:00Z,30.3085,-88.1395,2.613,6.32,1111122 
DISL,ioos:station:DISL:CATA:1,2017-06-06T12:30:00Z,30.3085,-88.1395,2.622,6.31,1111122 
DISL,ioos:station:DISL:CATA:1,2017-06-06T13:00:00Z,30.3085,-88.1395,2.634,6.14,1111122 
DISL,ioos:station:DISL:CATA:1,2017-06-06T13:30:00Z,30.3085,-88.1395,2.617,6.47,1111122 
DISL,ioos:station:DISL:CATA:1,2017-06-06T14:00:00Z,30.3085,-88.1395,2.621,6.34,1111122 
DISL,ioos:station:DISL:CATA:1,2017-06-06T14:30:00Z,30.3085,-88.1395,2.616,6.22,1111122 
DISL,ioos:station:DISL:CATA:1,2017-06-06T15:00:00Z,30.3085,-88.1395,2.605,6.18,1111122 
DISL,ioos:station:DISL:CATA:1,2017-06-06T15:30:00Z,30.3085,-88.1395,2.589,6.01,1111122 
DISL,ioos:station:DISL:CATA:1,2017-06-06T16:00:00Z,30.3085,-88.1395,2.572,5.66,1111122 
DISL,ioos:station:DISL:CATA:1,2017-06-06T16:30:00Z,30.3085,-88.1395,2.571,5.69,1111122 
DISL,ioos:station:DISL:CATA:1,2017-06-06T17:00:00Z,30.3085,-88.1395,2.565,5.62,1111122 
DISL,ioos:station:DISL:CATA:1,2017-06-06T17:30:00Z,30.3085,-88.1395,2.548,5.57,1111122 